Temperature
26 26 25 25 28 29 29 29 29 29 29 28 28 27 26 25 24 22 22 21 20 19 19 19 19 19 18 18 18 18 18 18 18 18 18 18 18 18 18 18 18 18 18 18 18 18 18 18 18
26 25 26 28 28 28 28 29 29 29 29 28 28 27 26 24 23 22 22 21 20 19 19 19 19 19 19 18 18 18 18 18 18 18 18 18 18 18 18 18 18 18 18 18 18 18 18 18 18
26 26 28 30 30 29 28 29 29 29 29 28 27 26 25 24 23 22 22 21 20 19 19 19 19 19 19 18 18 18 18 18 18 18 18 18 18 18 18 18 18 18 18 18 18 18 18 18 18
26 28 31 31 30 30 30 30 30 29 29 28 27 26 24 24 23 22 22 21 20 20 19 20 19 19 19 19 18 18 18 18 18 18 18 18 18 18 18 18 18 18 18 18 18 18 18 18 18
28 30 31 31 31 31 31 31 30 29 29 28 26 25 24 23 23 22 22 22 21 20 19 20 19 19 19 19 18 18 18 18 18 18 18 18 18 18 18 18 18 18 18 18 18 18 18 18 18
31 33 31 30 30 31 31 30 30 30 29 28 26 25 24 23 23 23 22 22 21 21 20 20 19 19 19 19 19 18 18 18 18 18 18 18 18 18 18 18 18 18 18 18 18 18 18 18 18
32 33 32 32 31 31 31 30 30 30 29 28 27 26 24 24 23 23 23 22 22 21 20 20 20 19 19 19 19 19 19 18 18 18 18 18 18 18 18 18 18 18 18 18 18 18 18 18 18
34 34 33 32 31 31 31 31 30 30 29 28 28 26 25 24 23 23 23 22 22 21 20 20 19 19 19 19 19 19 19 19 19 19 18 18 18 18 18 18 18 18 18 18 18 18 18 18 18
34 34 32 32 32 31 32 31 30 29 29 28 27 26 25 24 24 23 23 22 22 21 21 20 20 20 19 19 19 19 19 19 18 18 18 18 18 18 18 18 18 18 18 18 18 18 18 18 18
35 33 33 34 33 32 32 31 30 29 29 28 26 25 25 24 24 23 23 22 22 21 21 21 20 20 20 20 19 19 19 18 18 18 18 18 18 18 18 18 18 18 18 18 18 18 18 18 18
35 34 34 34 33 33 32 31 31 30 29 28 26 25 25 25 24 24 23 22 22 22 21 21 20 20 20 20 20 19 19 19 18 18 18 18 18 18 18 18 18 18 18 18 18 18 18 18 18
35 35 34 34 33 33 32 32 31 30 29 28 27 26 25 25 24 24 23 22 22 22 21 21 20 20 20 20 20 19 19 19 19 19 19 19 18 18 18 18 18 18 18 18 18 18 18 18 19
35 35 34 34 33 33 32 32 31 30 29 28 27 26 25 25 25 24 23 23 22 21 21 21 20 20 19 20 20 20 19 19 19 19 19 19 19 19 18 18 18 18 19 19 18 18 18 19 19
35 35 34 34 33 33 32 32 31 30 29 28 27 26 26 26 25 24 23 23 22 21 21 20 20 20 19 19 19 20 19 19 19 19 19 19 18 18 18 18 19 19 19 19 19 19 19 19 19
34 34 33 34 34 33 32 31 31 30 29 28 28 27 26 26 25 25 24 23 22 21 21 20 20 20 19 19 19 19 19 19 19 19 19 19 18 18 18 18 18 19 19 19 19 19 19 19 19
34 33 32 34 34 34 32 30 32 30 29 29 28 27 27 26 25 25 24 23 22 22 21 21 21 20 20 20 19 19 19 19 19 19 19 19 19 18 19 18 18 19 19 19 19 19 19 19 19
33 33 33 34 35 34 33 31 32 31 30 29 29 28 27 26 26 25 24 23 22 22 21 21 20 20 20 20 19 19 19 19 19 19 19 19 18 18 18 18 19 19 19 18 19 19 18 19 19
33 33 34 33 34 34 33 32 32 32 31 30 29 28 27 26 26 25 24 24 23 22 21 20 20 20 19 19 19 19 19 19 19 19 19 19 18 18 18 18 18 19 18 18 18 18 18 18 18
34 34 33 34 35 34 33 33 33 32 32 31 30 29 28 27 26 25 24 24 23 22 21 20 20 20 20 19 19 19 19 19 19 19 19 19 19 18 18 18 18 18 18 18 18 18 18 18 18
35 34 33 34 35 34 33 33 33 33 32 32 31 29 28 27 26 25 24 24 23 22 21 21 20 20 20 20 20 20 20 19 19 19 19 19 19 18 18 18 18 18 18 18 18 18 18 18 18
34 34 34 34 34 34 33 31 32 33 33 32 31 30 29 28 27 26 25 24 23 22 22 21 21 20 20 20 20 20 19 19 19 19 19 19 19 18 18 18 18 18 18 18 18 18 18 18 18
33 35 35 34 33 32 33 30 32 33 33 33 32 31 30 29 28 26 25 24 24 23 22 21 21 21 20 20 20 19 19 19 20 19 19 19 19 18 18 18 18 18 18 18 18 18 18 18 18
34 35 35 34 33 32 32 31 31 32 32 33 33 32 31 30 28 27 26 25 24 23 22 22 21 21 21 20 20 20 20 19 19 19 19 19 19 18 18 18 18 18 18 18 18 18 18 18 18
35 35 34 33 32 30 31 31 30 31 31 32 33 32 31 31 29 28 27 25 24 24 23 22 21 21 21 21 20 20 20 20 19 19 19 19 19 19 18 18 18 18 18 18 18 18 18 18 18
35 33 31 30 30 30 31 31 31 32 33 33 33 33 32 31 29 28 27 26 25 24 23 22 22 21 21 21 20 20 20 20 20 19 19 19 19 19 18 18 18 18 18 18 18 18 18 17 17
34 33 31 30 30 30 31 31 32 34 34 34 33 33 32 31 30 29 27 26 25 24 23 23 22 22 21 21 21 20 20 20 20 20 19 19 19 18 18 18 18 18 18 17 17 17 17 17 17
33 33 34 33 32 31 31 31 32 33 34 34 34 33 32 31 30 29 28 27 26 25 24 23 22 22 21 21 21 20 20 20 20 20 19 19 19 18 18 18 18 18 18 17 17 17 17 17 17
35 34 33 32 30 30 31 30 30 31 32 33 34 33 32 31 30 29 28 27 26 25 24 23 23 22 22 21 21 20 20 20 20 20 19 19 19 19 18 18 18 18 17 17 17 17 17 17 17
33 33 33 32 31 30 29 30 32 31 32 33 33 33 32 31 30 29 28 28 27 26 24 23 23 22 22 21 21 20 20 20 20 20 19 19 19 18 18 18 18 17 17 17 17 17 17 17 16
34 33 33 31 30 31 30 30 32 32 33 32 33 32 31 31 30 29 28 27 27 26 25 24 23 22 22 21 21 21 20 20 20 20 19 19 19 18 18 18 17 17 17 17 17 16 16 16 16
Wind_Speed
9 11 9 7 2 4 15 16 15 15 15 15 15 15 18 16 12 11 9 12 13 14 13 13 13 13 14 14 15 16 16 17 17 16 16 16 16 17 18 18 18 18 18 19 19 19 18 18 18
10 12 9 4 1 9 14 14 15 14 12 14 17 18 19 18 15 12 11 11 13 14 14 13 13 13 14 14 15 15 16 16 16 16 16 16 16 17 18 18 18 18 18 18 18 18 18 17 16
11 15 7 1 9 13 14 13 12 11 11 14 17 18 15 14 14 11 11 12 14 15 16 14 13 13 14 14 15 15 15 16 16 16 16 16 16 17 17 17 17 17 17 17 17 17 17 16 14
8 7 2 7 16 15 13 11 11 12 11 12 14 13 15 14 14 13 12 13 14 15 16 15 13 13 13 14 14 14 15 15 15 15 16 16 16 16 16 16 16 17 17 17 17 16 16 14 12
10 4 4 12 16 14 13 11 12 12 12 15 18 17 16 15 14 13 11 11 13 15 16 15 14 13 13 13 13 14 14 14 15 15 15 15 15 15 15 15 16 16 16 16 16 15 14 12 10
5 1 5 12 14 13 12 11 12 13 14 15 17 17 14 12 12 11 11 10 12 15 16 15 14 13 13 13 13 13 13 13 14 14 14 14 14 14 14 14 14 14 15 15 14 13 12 10 7
4 1 8 13 13 13 12 12 11 12 12 13 15 16 13 12 12 11 10 10 12 13 14 14 14 13 13 13 12 12 12 11 12 12 12 13 13 13 13 13 13 13 13 13 12 11 10 8 5
3 2 10 12 13 13 13 12 11 13 12 11 12 12 13 13 12 11 10 10 10 11 11 11 13 14 13 12 12 11 11 10 10 10 10 11 12 12 12 12 11 11 11 11 10 9 8 6 3
2 5 10 12 13 12 12 13 13 12 12 13 14 17 16 14 13 11 11 10 8 9 8 8 9 10 11 13 13 12 11 9 8 8 9 9 8 9 9 11 11 10 9 9 8 8 7 5 4
4 9 13 14 13 13 12 12 12 11 13 16 17 17 15 13 11 10 11 10 8 7 7 7 7 6 7 8 10 10 9 9 6 6 7 7 5 6 10 11 10 9 8 7 8 7 7 6 6
10 12 13 14 13 13 12 11 11 12 12 15 16 15 14 13 11 10 10 10 9 6 6 9 8 5 5 5 5 5 6 7 6 5 5 5 5 6 7 7 8 8 8 7 8 8 8 7 5
10 11 11 12 11 11 12 12 12 13 14 15 15 15 13 12 11 10 10 10 8 6 7 7 9 6 5 4 3 3 4 4 5 5 3 4 2 2 3 2 5 5 4 4 5 5 6 5 4
8 10 12 11 11 11 12 12 13 14 15 16 15 14 12 11 11 10 10 10 8 6 7 8 8 6 4 4 3 2 3 3 5 5 3 3 2 2 2 1 0 1 3 3 2 1 1 1 1
7 10 10 10 10 10 12 11 13 14 15 15 14 12 11 11 11 11 10 9 9 7 7 7 7 6 4 3 1 1 2 3 4 4 4 2 2 2 2 1 1 1 1 1 1 1 1 0 0
6 7 7 7 8 9 9 9 12 14 14 14 13 12 11 10 10 10 10 9 9 7 7 6 6 6 4 2 1 1 1 3 3 4 5 3 3 2 1 1 1 1 1 1 0 1 1 2 2
7 8 8 7 7 8 6 8 13 14 13 12 12 12 11 9 10 10 10 8 8 8 7 4 4 7 5 3 1 1 2 2 2 4 4 3 3 2 1 1 1 1 1 1 1 1 1 1 0
8 8 8 8 7 7 5 10 13 13 13 12 12 12 12 11 10 10 11 10 9 8 7 5 2 5 4 4 2 1 1 1 0 1 3 3 3 3 2 1 0 1 1 1 2 1 0 1 1
7 6 6 7 7 4 5 10 14 13 12 13 12 13 13 12 11 11 10 10 9 8 7 6 4 3 3 3 2 1 1 1 1 1 2 2 2 2 2 1 1 1 1 1 1 0 0 1 1
5 4 2 4 7 5 4 8 13 14 12 13 13 13 13 12 12 11 10 10 10 9 8 6 5 5 3 1 2 2 2 2 2 2 3 2 1 1 1 1 0 1 1 1 1 1 1 2 1
7 4 4 5 6 4 4 6 11 14 13 12 13 14 13 13 12 12 11 10 11 10 9 8 6 5 5 3 2 1 1 1 2 1 2 2 1 1 2 1 1 1 1 1 1 1 1 2 1
9 8 5 4 4 6 5 6 8 12 12 12 12 14 15 15 15 14 13 11 11 10 10 8 6 6 5 4 3 2 2 1 1 2 2 2 1 1 1 1 1 2 1 1 2 1 2 2 2
9 7 6 6 5 5 5 4 8 12 12 13 13 13 14 15 16 16 15 12 11 11 10 8 8 6 5 5 3 3 3 2 2 2 2 3 2 2 1 1 1 2 1 1 2 0 2 2 2
10 6 8 7 7 8 5 3 4 8 10 11 13 14 14 14 15 15 15 13 12 12 11 9 8 7 6 5 5 3 2 2 2 2 3 2 2 1 0 0 0 1 1 1 2 1 1 2 2
9 9 8 8 8 8 8 6 3 5 7 8 9 12 13 14 15 14 14 13 12 11 11 11 9 7 6 6 5 4 3 1 1 1 2 2 2 1 1 1 1 1 1 1 2 2 1 1 2
12 10 8 8 7 8 9 6 5 8 8 9 9 10 12 13 15 15 15 15 13 12 11 11 10 8 7 7 6 5 4 4 3 2 2 2 1 2 1 1 1 1 1 0 1 1 2 2 2
14 14 11 8 7 5 6 4 4 7 9 8 9 9 11 12 13 15 15 14 13 13 12 11 11 9 8 8 6 5 5 4 3 3 1 1 1 2 2 2 2 2 2 2 2 1 1 1 2
14 14 15 12 12 8 5 3 3 5 7 8 9 10 10 11 12 13 15 16 15 13 12 11 11 10 9 8 7 6 5 4 3 3 2 1 2 2 2 2 2 2 1 1 1 1 1 2 2
17 14 10 10 8 10 6 6 6 7 8 7 7 9 11 11 11 11 12 14 14 14 12 11 12 11 9 8 8 8 6 5 4 3 3 3 3 3 2 1 2 1 1 2 1 1 1 1 1
16 16 12 9 9 9 7 4 4 6 5 7 8 7 9 10 11 10 10 12 13 14 14 12 11 11 10 9 7 6 7 6 5 4 4 3 3 2 2 1 1 1 1 2 2 1 2 2 2
17 17 15 11 8 9 8 5 4 5 6 5 6 8 8 8 9 10 11 11 11 12 12 12 12 11 10 9 8 7 6 6 6 5 4 4 3 3 2 2 1 1 2 2 2 2 2 2 2
Wind_Direction
206 219 222 244 253 68 66 67 68 67 66 65 66 71 66 60 72 91 99 94 98 97 94 81 70 69 73 74 72 71 70 69 73 75 78 77 81 87 88 89 91 94 96 97 98 100 101 103 105
226 227 230 245 82 74 69 68 69 66 73 77 71 74 74 73 84 97 100 100 99 95 90 84 78 74 77 77 77 76 74 73 74 77 79 78 82 90 89 90 92 93 95 96 97 100 102 104 106
247 249 256 75 65 72 75 74 80 80 78 83 78 69 69 82 88 99 109 108 100 96 96 90 83 79 79 80 81 80 79 78 77 81 83 83 84 89 90 91 93 93 95 97 98 100 102 103 107
250 246 216 72 73 74 82 86 90 87 81 82 85 79 74 85 98 108 112 109 109 107 101 96 90 85 83 85 85 84 82 81 80 84 86 85 85 86 90 91 93 95 96 98 99 100 102 104 109
246 264 84 77 77 78 80 84 89 88 82 84 88 92 89 93 104 110 111 109 109 106 106 104 99 94 89 90 88 87 86 85 85 84 87 88 88 88 90 90 92 94 96 99 100 101 103 106 108
258 199 82 87 85 84 85 87 90 91 94 99 102 100 100 109 110 111 111 109 108 110 110 113 109 104 97 94 95 93 90 89 90 90 90 90 90 91 90 93 94 97 100 102 103 103 105 106 107
267 49 88 93 95 90 88 91 94 98 96 100 108 107 112 116 114 112 107 105 106 108 118 127 127 122 113 106 103 102 101 98 97 97 99 101 98 99 97 97 100 101 103 105 107 108 110 112 112
289 53 80 92 94 93 95 93 94 93 90 101 111 112 121 122 123 119 114 103 102 106 115 126 134 140 136 124 122 119 117 114 112 113 114 115 116 114 115 110 107 109 112 114 116 118 120 125 135
329 61 74 86 95 100 101 99 97 95 96 83 89 108 121 128 126 123 115 103 98 103 110 114 120 136 138 133 137 142 137 136 137 138 142 143 141 136 132 114 119 121 126 131 133 135 138 152 184
81 72 76 82 95 104 104 107 113 108 99 97 98 109 124 131 131 128 122 120 114 112 113 108 102 110 120 121 142 156 144 146 163 144 157 168 159 136 125 131 136 138 143 151 160 160 168 197 196
82 83 86 91 97 107 111 112 114 114 112 115 120 127 134 134 134 129 122 119 119 125 114 110 100 90 90 104 138 144 129 146 154 131 138 130 132 135 134 150 156 166 171 183 173 185 201 210 214
90 91 93 95 101 103 101 99 96 99 110 119 126 133 137 142 137 132 127 125 126 122 110 106 104 86 60 52 85 128 126 146 134 138 146 123 112 116 129 155 160 176 180 186 181 200 199 195 193
106 103 103 105 103 101 104 99 98 102 112 121 129 136 144 145 138 131 126 126 124 122 114 97 98 95 83 48 359 85 103 110 121 130 116 133 142 113 112 86 93 185 169 182 204 193 149 146 179
114 113 112 115 112 117 112 114 113 118 125 129 135 141 148 145 142 134 133 132 134 133 124 118 119 120 117 118 353 350 98 104 117 119 123 113 105 113 123 165 214 260 158 150 167 151 126 157 150
137 128 133 135 140 130 126 125 121 133 137 141 145 149 150 147 142 140 141 141 140 136 125 126 140 132 132 142 210 200 158 142 123 120 127 136 115 124 160 204 196 232 205 145 167 220 172 199 204
183 176 171 161 161 144 164 134 134 147 148 150 155 155 154 150 151 148 143 146 143 138 133 158 156 135 141 140 285 323 42 75 115 135 137 144 140 158 233 248 222 242 235 192 216 243 192 239 204
224 208 178 161 164 158 168 141 145 159 157 160 165 162 161 163 166 155 153 153 143 136 140 153 133 131 145 152 176 217 81 53 355 121 137 151 184 190 224 237 236 269 288 273 256 121 217 235 213
217 224 178 156 155 168 163 148 154 167 168 166 170 168 169 170 171 162 158 151 145 141 144 154 164 148 161 162 172 202 166 173 171 139 128 146 208 206 240 217 201 224 256 283 296 325 220 255 242
239 240 174 146 148 191 187 161 165 169 178 172 172 173 171 172 170 162 161 156 154 150 153 163 171 157 167 187 187 190 185 198 179 169 153 172 217 234 241 304 208 219 248 270 276 279 240 227 211
256 243 225 176 163 196 204 194 173 171 180 179 175 174 173 169 162 165 165 168 163 159 162 167 172 165 173 183 183 182 198 219 179 155 147 170 182 263 246 218 263 228 236 279 272 267 276 268 218
256 251 247 222 190 213 212 218 189 173 178 180 181 175 174 176 171 170 173 176 173 168 169 171 166 168 179 179 183 191 172 238 197 169 150 156 168 207 312 309 302 285 247 239 251 240 252 259 260
251 245 255 246 235 245 220 212 193 178 180 184 186 183 178 176 171 172 175 177 177 172 168 163 162 169 174 175 188 201 187 193 200 185 145 157 174 202 227 276 298 302 299 272 277 166 270 254 262
254 259 255 256 253 265 248 234 213 177 183 186 187 185 180 175 170 172 173 173 178 175 169 163 161 166 169 181 194 207 220 204 182 153 142 151 155 185 176 344 22 312 327 332 319 332 293 268 271
250 257 257 257 259 260 252 239 195 192 189 184 187 184 176 173 167 168 167 166 173 172 169 165 160 166 172 181 189 197 218 211 145 145 158 181 160 150 117 104 46 360 8 348 339 314 313 308 296
234 237 243 240 235 241 242 239 185 176 177 186 174 172 169 166 165 167 167 167 171 173 172 167 162 169 177 183 190 189 199 196 193 202 196 206 148 129 107 65 46 23 357 344 6 319 335 340 312
228 235 242 253 250 236 237 228 188 159 161 172 162 167 166 162 165 168 168 169 173 174 170 167 162 170 178 183 186 184 185 197 187 191 209 150 94 88 83 81 67 45 28 17 8 2 336 350 312
233 238 249 257 266 256 224 214 222 181 172 166 163 160 158 161 166 169 170 174 174 174 171 168 161 168 175 178 175 180 184 181 166 159 174 118 107 126 83 81 76 68 64 26 8 29 23 356 337
241 246 252 254 265 269 240 221 213 193 184 163 164 163 157 159 163 167 171 174 173 173 167 164 163 166 171 174 178 181 178 169 171 161 135 111 95 82 93 72 65 56 54 45 38 42 37 18 14
228 239 245 255 258 260 260 245 182 174 169 183 180 161 155 159 160 164 168 166 165 167 166 164 163 165 170 176 178 171 169 170 168 165 155 139 132 134 136 111 78 62 61 55 37 46 59 50 41
233 237 238 242 251 260 260 244 204 182 180 196 172 149 155 155 153 159 158 156 160 164 165 166 168 171 174 173 167 170 168 168 168 166 158 151 151 154 149 136 117 56 68 73 58 33 49 56 54
Height
1477 1477 1477 1480 1478 1479 1484 1482 1480 1483 1485 1488 1489 1491 1497 1500 1506 1519 1520 1519 1520 1519 1518 1517 1516 1515 1515 1514 1514 1514 1513 1513 1512 1512 1512 1512 1512 1513 1514 1515 1516 1517 1519 1520 1522 1524 1526 1527 1529
1477 1478 1480 1478 1480 1491 1492 1484 1486 1487 1489 1491 1493 1496 1501 1506 1511 1516 1520 1521 1522 1522 1520 1519 1518 1518 1517 1517 1517 1517 1516 1516 1516 1516 1515 1515 1515 1516 1518 1519 1520 1521 1522 1524 1525 1527 1529 1531 1532
1478 1480 1480 1474 1478 1489 1493 1486 1487 1489 1491 1493 1497 1502 1506 1511 1515 1518 1521 1523 1523 1523 1522 1521 1520 1520 1520 1520 1520 1520 1520 1519 1519 1519 1519 1519 1519 1520 1521 1522 1524 1525 1526 1527 1529 1530 1532 1534 1536
1479 1479 1476 1475 1484 1483 1485 1486 1487 1490 1493 1495 1499 1506 1512 1515 1518 1521 1523 1524 1524 1525 1524 1523 1523 1522 1522 1522 1523 1523 1523 1523 1522 1522 1523 1523 1523 1524 1525 1526 1527 1528 1529 1531 1532 1533 1535 1537 1539
1481 1477 1476 1482 1484 1483 1484 1487 1489 1492 1495 1499 1504 1511 1516 1520 1521 1523 1524 1526 1526 1527 1526 1526 1525 1525 1525 1525 1525 1526 1526 1526 1526 1526 1526 1526 1527 1527 1528 1529 1530 1531 1532 1534 1535 1537 1538 1540 1542
1478 1472 1482 1489 1488 1485 1486 1489 1492 1495 1498 1502 1507 1513 1519 1522 1523 1525 1526 1527 1528 1529 1528 1528 1528 1528 1528 1528 1528 1528 1529 1529 1529 1529 1529 1530 1530 1531 1531 1532 1533 1535 1536 1537 1538 1539 1541 1543 1544
1475 1473 1479 1483 1488 1489 1488 1491 1494 1497 1499 1503 1507 1513 1520 1523 1525 1526 1528 1529 1530 1530 1530 1530 1530 1531 1531 1531 1531 1531 1532 1532 1532 1533 1533 1533 1534 1534 1535 1535 1536 1538 1539 1540 1541 1542 1543 1545 1547
1471 1470 1476 1480 1488 1491 1490 1493 1496 1498 1502 1505 1508 1513 1520 1525 1526 1528 1529 1531 1532 1533 1533 1533 1533 1533 1533 1534 1534 1534 1535 1535 1535 1536 1536 1537 1537 1538 1538 1539 1540 1541 1542 1543 1544 1545 1546 1547 1549
1470 1474 1482 1481 1486 1490 1490 1494 1498 1502 1504 1507 1509 1514 1521 1525 1527 1529 1531 1532 1534 1535 1535 1535 1536 1537 1537 1537 1537 1537 1538 1538 1538 1539 1540 1540 1540 1541 1542 1543 1543 1544 1545 1545 1546 1548 1549 1550 1551
1470 1478 1480 1478 1482 1487 1491 1495 1498 1502 1506 1511 1515 1519 1523 1526 1528 1530 1531 1533 1535 1536 1537 1537 1538 1539 1540 1540 1540 1540 1540 1541 1541 1542 1542 1543 1544 1545 1545 1545 1546 1546 1547 1548 1549 1550 1551 1552 1553
1471 1477 1477 1480 1484 1488 1491 1495 1497 1502 1507 1512 1517 1521 1524 1527 1529 1531 1532 1534 1536 1537 1538 1539 1539 1540 1541 1542 1542 1542 1543 1543 1543 1544 1545 1545 1546 1547 1547 1547 1548 1549 1549 1550 1551 1551 1552 1553 1554
1474 1476 1479 1482 1486 1488 1491 1495 1499 1502 1508 1513 1518 1521 1524 1527 1529 1531 1533 1535 1537 1538 1539 1540 1540 1540 1541 1542 1543 1544 1544 1544 1545 1545 1546 1547 1548 1549 1549 1549 1550 1550 1551 1551 1552 1553 1554 1555 1555
1476 1479 1482 1485 1487 1490 1493 1497 1501 1506 1510 1515 1519 1522 1525 1527 1529 1532 1534 1536 1537 1539 1539 1540 1540 1541 1542 1542 1543 1545 1545 1545 1545 1546 1547 1548 1549 1549 1550 1550 1551 1552 1552 1553 1553 1554 1554 1555 1555
1477 1480 1483 1485 1488 1491 1494 1498 1502 1508 1512 1516 1519 1523 1525 1527 1529 1532 1534 1536 1537 1539 1540 1540 1541 1541 1542 1543 1544 1544 1545 1546 1546 1547 1548 1548 1549 1550 1550 1551 1551 1552 1553 1553 1554 1554 1554 1555 1555
1479 1483 1485 1485 1487 1490 1494 1499 1501 1507 1511 1515 1519 1522 1525 1527 1529 1532 1534 1536 1537 1539 1540 1540 1541 1541 1542 1543 1544 1545 1546 1546 1547 1547 1548 1549 1549 1550 1551 1551 1552 1552 1553 1553 1553 1554 1554 1554 1555
1479 1484 1492 1485 1484 1487 1495 1505 1501 1506 1510 1514 1518 1521 1524 1527 1529 1531 1533 1535 1537 1538 1539 1540 1542 1541 1542 1543 1544 1545 1546 1546 1547 1548 1548 1549 1549 1550 1550 1551 1551 1552 1552 1553 1553 1553 1553 1553 1554
1483 1489 1490 1485 1481 1483 1490 1499 1499 1503 1507 1511 1515 1519 1523 1526 1528 1530 1532 1534 1536 1537 1538 1539 1541 1541 1542 1543 1543 1545 1545 1546 1547 1547 1548 1548 1549 1549 1550 1550 1551 1551 1551 1552 1552 1552 1552 1552 1553
1489 1485 1484 1484 1480 1483 1488 1493 1495 1499 1503 1507 1512 1516 1520 1523 1526 1529 1531 1533 1535 1536 1537 1539 1540 1541 1541 1542 1543 1544 1545 1545 1546 1547 1547 1548 1548 1549 1549 1550 1550 1550 1550 1550 1551 1551 1551 1551 1552
1474 1479 1484 1481 1478 1483 1487 1490 1491 1495 1499 1503 1508 1512 1517 1521 1524 1528 1530 1532 1534 1535 1536 1538 1539 1539 1540 1541 1542 1543 1544 1545 1546 1546 1546 1547 1547 1548 1548 1549 1549 1549 1549 1549 1549 1549 1550 1550 1550
1473 1481 1483 1479 1476 1482 1488 1488 1486 1490 1494 1498 1503 1509 1513 1518 1522 1525 1528 1530 1532 1533 1535 1536 1537 1539 1539 1541 1542 1543 1544 1544 1545 1545 1546 1546 1546 1547 1547 1547 1547 1547 1547 1548 1548 1548 1548 1548 1548
1476 1479 1480 1480 1477 1478 1486 1495 1488 1487 1490 1495 1499 1504 1509 1514 1518 1522 1525 1528 1531 1532 1533 1535 1536 1537 1538 1539 1541 1542 1543 1544 1544 1545 1545 1545 1545 1546 1546 1546 1546 1546 1546 1546 1546 1546 1546 1546 1547
1480 1470 1473 1476 1485 1490 1488 1508 1491 1485 1488 1491 1495 1499 1504 1509 1514 1518 1522 1525 1528 1530 1532 1533 1535 1536 1537 1538 1540 1541 1542 1543 1543 1544 1544 1544 1544 1545 1545 1545 1544 1544 1544 1544 1544 1544 1544 1544 1544
1472 1468 1472 1475 1484 1491 1488 1502 1497 1484 1489 1488 1490 1494 1499 1504 1509 1514 1518 1522 1526 1529 1530 1532 1533 1534 1536 1537 1538 1539 1541 1542 1543 1543 1544 1544 1544 1543 1543 1543 1543 1543 1543 1543 1543 1542 1542 1542 1542
1467 1471 1475 1478 1486 1508 1494 1501 1504 1490 1488 1486 1488 1491 1495 1500 1506 1511 1516 1520 1523 1527 1529 1530 1531 1532 1534 1535 1537 1538 1539 1540 1542 1542 1543 1543 1543 1543 1543 1543 1542 1542 1542 1541 1541 1541 1541 1540 1540
1469 1483 1499 1506 1508 1510 1488 1493 1495 1480 1478 1481 1483 1487 1492 1497 1502 1508 1513 1517 1520 1524 1526 1528 1529 1531 1532 1534 1535 1537 1538 1539 1540 1541 1542 1542 1543 1542 1542 1542 1541 1541 1540 1540 1540 1539 1539 1538 1538
1470 1477 1499 1514 1513 1503 1490 1494 1484 1471 1475 1476 1481 1486 1490 1495 1499 1504 1509 1513 1517 1521 1524 1526 1527 1529 1530 1532 1533 1535 1537 1538 1539 1540 1541 1542 1542 1542 1542 1541 1540 1540 1539 1539 1539 1538 1537 1537 1537
1471 1472 1469 1483 1491 1499 1496 1487 1479 1473 1473 1475 1479 1483 1488 1493 1497 1501 1506 1510 1514 1518 1521 1524 1525 1527 1529 1530 1532 1534 1535 1537 1538 1539 1540 1541 1541 1541 1541 1540 1540 1539 1539 1538 1537 1537 1536 1536 1535
1461 1465 1472 1485 1504 1509 1499 1495 1490 1479 1475 1474 1477 1481 1486 1491 1495 1500 1504 1507 1511 1515 1519 1521 1523 1525 1527 1529 1531 1533 1534 1535 1537 1538 1538 1539 1540 1540 1539 1539 1539 1538 1538 1537 1536 1535 1534 1534 1534
1466 1469 1472 1477 1485 1504 1513 1502 1474 1475 1474 1474 1477 1480 1483 1488 1493 1498 1502 1505 1509 1513 1516 1519 1522 1524 1526 1528 1530 1531 1532 1534 1535 1536 1537 1537 1538 1538 1538 1538 1538 1537 1536 1535 1535 1534 1533 1533 1532
1458 1463 1468 1485 1490 1487 1497 1496 1469 1469 1471 1474 1476 1479 1483 1487 1491 1496 1500 1503 1507 1510 1514 1517 1520 1522 1524 1526 1528 1530 1531 1532 1533 1534 1535 1536 1536 1536 1536 1536 1536 1536 1535 1534 1533 1533 1532 1532 1531